{"data":{"norad_id":63709,"intl_designator":"2025-087N","name":"STARLINK-33862","alt_names":[],"object_type":"PAYLOAD","status":"ACTIVE","operator":null,"country":"US","launch_date":"2025-04-28","launch_site_code":"AFWTR","launch_vehicle":null,"mission":null,"orbit_class":"UNKNOWN","rcs_meters":null,"size_class":null,"mass_kg":null,"dimensions":null,"purposes":["comms"],"wikipedia_slug":null,"has_3d_model":false,"image_url":null,"decayed_at":null,"tle_current":{"epoch":"2026-09-20T15:34:54.879456Z","epoch_age_seconds":139617,"freshness":"FRESH","line1":"1 63709U 25087N   26263.64924629  .00012210  00000+0  37183-3 0  9998","line2":"2 63709  53.1594  32.9395 0000938  92.0705 268.0405 15.34408539 79067","mean_motion":15.34408539,"eccentricity":9.38e-5,"inclination_deg":53.1594,"raan_deg":32.9395,"arg_perigee_deg":92.0705,"mean_anomaly_deg":268.0405,"bstar":0.00037183,"rev_number":7906,"period_min":93.847235817553,"perigee_km":462.03619218336,"apogee_km":463.31952905122,"semimajor_km":6840.8148606173,"source":"CELESTRAK","updated_at":"2026-09-21T09:00:35.064535Z"}}}